Zurück zum Katalog

STARLINK-37084

AktivKommunikationVLEO
NORAD 68254·PAYLOAD·🇺🇸 United States

Gestartet Mar 17, 2026 von Vandenberg Space Force Base

Loading…

Nächste Überflüge (nächste 24 Stunden)

TLE

AktuellSource: CelesTrak SupGP

Epoche: Sep 14, 2026, 23:28 UTC

1 68254C 26054Y   26257.97826389  .00044165  00000+0  13040-2 0  2572
2 68254  53.1563 127.8593 0001181  94.6742 152.2299 15.34388425    12

Verfolge STARLINK-37084 in Echtzeit mit AllMySat

Download on the App Store